Time,TemperatureF,DewpointF,PressureIn,WindDirection,WindDirectionDegrees,WindSpeedMPH,WindSpeedGustMPH,Humidity,HourlyPrecipIn,Conditions,Clouds,dailyrainin,SoftwareType,DateUTC
2013-01-08 00:00:00,-4.5,-8.0,30.24,SSW,194,2.0,7.0,85,0.00,,,0.00,meteohub,2013-01-08 05:00:00,
2013-01-08 00:04:00,-4.5,-8.0,30.24,SSW,193,1.0,7.0,85,0.00,,,0.00,meteohub,2013-01-08 05:04:00,
2013-01-08 00:05:00,-4.4,-7.8,30.24,SSE,159,2.0,7.0,85,0.00,,,0.00,meteohub,2013-01-08 05:05:00,
2013-01-08 00:06:00,-4.4,-7.8,30.24,SSE,165,4.0,7.0,85,0.00,,,0.00,meteohub,2013-01-08 05:06:00,
2013-01-08 00:11:00,-3.8,-7.2,30.24,SSE,154,2.0,6.0,85,0.00,,,0.00,meteohub,2013-01-08 05:11:00,
2013-01-08 00:16:00,-3.5,-6.9,30.24,South,182,1.0,5.0,85,0.00,,,0.00,meteohub,2013-01-08 05:16:00,
2013-01-08 00:21:00,-3.3,-6.9,30.24,South,181,3.0,5.0,84,0.00,,,0.00,meteohub,2013-01-08 05:21:00,
2013-01-08 00:26:00,-2.7,-6.3,30.23,South,173,3.0,6.0,84,0.00,,,0.00,meteohub,2013-01-08 05:26:00,
2013-01-08 00:31:00,-2.4,-6.0,30.23,SSW,210,1.0,6.0,84,0.00,,,0.00,meteohub,2013-01-08 05:31:00,
2013-01-08 00:37:00,-2.0,-5.4,30.22,SSW,194,2.0,6.0,85,0.00,,,0.00,meteohub,2013-01-08 05:37:00,
2013-01-08 00:42:00,-1.8,-5.4,30.23,South,190,3.0,6.0,84,0.00,,,0.00,meteohub,2013-01-08 05:42:00,
2013-01-08 00:47:00,-1.7,-5.3,30.23,SSW,192,2.0,6.0,84,0.00,,,0.00,meteohub,2013-01-08 05:47:00,
2013-01-08 00:52:00,-1.7,-5.3,30.23,SSW,204,2.0,5.0,84,0.00,,,0.00,meteohub,2013-01-08 05:52:00,
2013-01-08 00:57:00,-1.3,-4.9,30.24,SSW,205,1.0,5.0,84,0.00,,,0.00,meteohub,2013-01-08 05:57:00,
2013-01-08 01:02:00,-0.9,-4.5,30.24,SSW,205,0.0,5.0,84,0.00,,,0.00,meteohub,2013-01-08 06:02:00,
2013-01-08 01:07:00,-0.6,-4.2,30.23,SSW,205,0.0,3.0,84,0.00,,,0.00,meteohub,2013-01-08 06:07:00,
2013-01-08 01:12:00,-0.8,-4.7,30.23,SSW,205,0.0,3.0,83,0.00,,,0.00,meteohub,2013-01-08 06:12:00,
2013-01-08 01:17:00,-0.9,-4.5,30.23,SSW,205,0.0,1.0,84,0.00,,,0.00,meteohub,2013-01-08 06:17:00,
2013-01-08 01:22:00,-0.8,-4.4,30.23,SSW,205,0.0,1.0,84,0.00,,,0.00,meteohub,2013-01-08 06:22:00,
2013-01-08 01:27:00,-0.8,-4.2,30.23,SSW,205,0.0,1.0,85,0.00,,,0.00,meteohub,2013-01-08 06:27:00,
2013-01-08 01:32:00,-0.6,-4.2,30.23,SSW,205,0.0,2.0,84,0.00,,,0.00,meteohub,2013-01-08 06:32:00,
2013-01-08 01:37:00,-0.8,-4.4,30.23,SSW,205,0.0,2.0,84,0.00,,,0.00,meteohub,2013-01-08 06:37:00,
2013-01-08 01:42:00,-0.8,-4.2,30.22,SW,220,1.0,2.0,85,0.00,,,0.00,meteohub,2013-01-08 06:42:00,
2013-01-08 01:47:00,-0.8,-4.2,30.22,SW,220,0.0,2.0,85,0.00,,,0.00,meteohub,2013-01-08 06:47:00,
2013-01-08 01:52:00,-0.8,-4.2,30.22,SW,220,0.0,2.0,85,0.00,,,0.00,meteohub,2013-01-08 06:52:00,
2013-01-08 01:57:00,-0.9,-4.4,30.22,SW,220,0.0,2.0,85,0.00,,,0.00,meteohub,2013-01-08 06:57:00,
2013-01-08 02:02:00,-0.9,-4.4,30.22,SW,220,0.0,0.0,85,0.00,,,0.00,meteohub,2013-01-08 07:02:00,
2013-01-08 02:07:00,-1.1,-4.5,30.22,SW,220,0.0,0.0,85,0.00,,,0.00,meteohub,2013-01-08 07:07:00,
2013-01-08 02:12:00,-0.9,-4.4,30.21,SW,220,0.0,0.0,85,0.00,,,0.00,meteohub,2013-01-08 07:12:00,
2013-01-08 02:17:00,-1.1,-4.5,30.21,SW,220,0.0,0.0,85,0.00,,,0.00,meteohub,2013-01-08 07:17:00,
2013-01-08 02:22:00,-1.1,-4.5,30.20,SSE,150,0.0,0.0,85,0.00,,,0.00,meteohub,2013-01-08 07:22:00,
2013-01-08 02:27:00,-1.3,-4.7,30.19,SSE,150,0.0,1.0,85,0.00,,,0.00,meteohub,2013-01-08 07:27:00,
2013-01-08 02:32:00,-1.5,-4.9,30.19,South,180,1.0,1.0,85,0.00,,,0.00,meteohub,2013-01-08 07:32:00,
2013-01-08 02:37:00,-0.6,-3.8,30.18,SSW,192,6.0,6.0,86,0.00,,,0.00,meteohub,2013-01-08 07:37:00,
2013-01-08 02:42:00,0.0,-3.5,30.18,SSW,209,3.0,7.0,85,0.00,,,0.00,meteohub,2013-01-08 07:42:00,
2013-01-08 02:47:00,-0.2,-3.8,30.18,SSE,162,3.0,7.0,84,0.00,,,0.00,meteohub,2013-01-08 07:47:00,
2013-01-08 02:52:00,-0.4,-4.0,30.17,SSE,163,1.0,7.0,84,0.00,,,0.00,meteohub,2013-01-08 07:52:00,
2013-01-08 02:57:00,-0.6,-4.2,30.16,SE,134,2.0,7.0,84,0.00,,,0.00,meteohub,2013-01-08 07:57:00,
2013-01-08 03:02:00,-0.6,-4.5,30.17,SSW,196,1.0,7.0,83,0.00,,,0.00,meteohub,2013-01-08 08:02:00,
2013-01-08 03:07:00,-0.6,-4.2,30.16,South,181,0.0,5.0,84,0.00,,,0.00,meteohub,2013-01-08 08:07:00,
2013-01-08 03:12:00,0.0,-3.6,30.16,ESE,117,0.0,6.0,84,0.00,,,0.00,meteohub,2013-01-08 08:12:00,
2013-01-08 03:17:00,0.7,-2.7,30.15,South,188,2.0,6.0,85,0.00,,,0.00,meteohub,2013-01-08 08:17:00,
2013-01-08 03:22:00,1.6,-2.2,30.15,South,191,0.0,5.0,84,0.00,,,0.00,meteohub,2013-01-08 08:22:00,
2013-01-08 03:27:00,1.9,-2.0,30.14,SW,233,1.0,5.0,83,0.00,,,0.00,meteohub,2013-01-08 08:27:00,
2013-01-08 03:32:00,2.5,-1.8,30.15,SSW,204,1.0,5.0,82,0.00,,,0.00,meteohub,2013-01-08 08:32:00,
2013-01-08 03:37:00,2.8,-1.7,30.14,SSW,200,4.0,6.0,81,0.00,,,0.00,meteohub,2013-01-08 08:37:00,
2013-01-08 03:42:00,3.2,-1.5,30.14,South,172,6.0,9.0,80,0.00,,,0.00,meteohub,2013-01-08 08:42:00,
2013-01-08 03:47:00,3.4,-1.5,30.13,SSE,164,1.0,13.0,80,0.00,,,0.00,meteohub,2013-01-08 08:47:00,
2013-01-08 03:52:00,3.4,-1.5,30.13,SSE,161,2.0,13.0,80,0.00,,,0.00,meteohub,2013-01-08 08:52:00,
2013-01-08 03:57:00,3.4,-1.5,30.12,SSW,204,3.0,13.0,80,0.00,,,0.00,meteohub,2013-01-08 08:57:00,
2013-01-08 04:02:00,3.4,-1.5,30.12,SE,146,2.0,13.0,80,0.00,,,0.00,meteohub,2013-01-08 09:02:00,
2013-01-08 04:07:00,3.7,-1.1,30.12,SSW,209,7.0,11.0,80,0.00,,,0.00,meteohub,2013-01-08 09:07:00,
2013-01-08 04:12:00,3.9,-0.9,30.12,South,171,6.0,15.0,80,0.00,,,0.00,meteohub,2013-01-08 09:12:00,
2013-01-08 04:17:00,3.9,-0.9,30.12,SSW,194,9.0,15.0,80,0.00,,,0.00,meteohub,2013-01-08 09:17:00,
2013-01-08 04:22:00,3.9,-0.9,30.12,South,182,11.0,15.0,80,0.00,,,0.00,meteohub,2013-01-08 09:22:00,
2013-01-08 04:27:00,3.9,-0.9,30.11,SSW,199,4.0,14.0,80,0.00,,,0.00,meteohub,2013-01-08 09:27:00,
2013-01-08 04:32:00,4.1,-0.8,30.11,SE,133,1.0,14.0,80,0.00,,,0.00,meteohub,2013-01-08 09:32:00,
2013-01-08 04:37:00,4.5,0.0,30.11,South,175,5.0,13.0,81,0.00,,,0.00,meteohub,2013-01-08 09:37:00,
2013-01-08 04:42:00,4.6,0.1,30.10,South,176,8.0,11.0,81,0.00,,,0.00,meteohub,2013-01-08 09:42:00,
2013-01-08 04:47:00,5.0,0.5,30.10,SSW,207,10.0,13.0,81,0.00,,,0.00,meteohub,2013-01-08 09:47:00,
2013-01-08 04:52:00,5.2,0.3,30.09,South,190,6.0,16.0,80,0.00,,,0.00,meteohub,2013-01-08 09:52:00,
2013-01-08 04:57:00,5.4,0.5,30.09,South,186,5.0,16.0,80,0.00,,,0.00,meteohub,2013-01-08 09:57:00,
2013-01-08 05:02:00,5.7,1.2,30.09,SSW,192,4.0,16.0,81,0.00,,,0.00,meteohub,2013-01-08 10:02:00,
2013-01-08 05:07:00,6.1,1.6,30.09,SSW,210,7.0,13.0,81,0.00,,,0.00,meteohub,2013-01-08 10:07:00,
2013-01-08 05:12:00,6.4,1.6,30.09,SW,227,3.0,13.0,80,0.00,,,0.00,meteohub,2013-01-08 10:12:00,
2013-01-08 05:17:00,6.6,2.1,30.10,SE,140,2.0,13.0,81,0.00,,,0.00,meteohub,2013-01-08 10:17:00,
2013-01-08 05:22:00,7.0,2.5,30.09,SSE,155,1.0,13.0,81,0.00,,,0.00,meteohub,2013-01-08 10:22:00,
2013-01-08 05:27:00,7.2,2.3,30.09,SSW,196,5.0,10.0,80,0.00,,,0.00,meteohub,2013-01-08 10:27:00,
2013-01-08 05:32:00,7.3,2.5,30.09,South,184,3.0,10.0,80,0.00,,,0.00,meteohub,2013-01-08 10:32:00,
2013-01-08 05:37:00,7.3,2.5,30.09,South,187,2.0,10.0,80,0.00,,,0.00,meteohub,2013-01-08 10:37:00,
2013-01-08 05:42:00,7.5,2.8,30.09,SSE,162,3.0,9.0,81,0.00,,,0.00,meteohub,2013-01-08 10:42:00,
2013-01-08 05:47:00,7.5,2.8,30.09,South,175,3.0,9.0,81,0.00,,,0.00,meteohub,2013-01-08 10:47:00,
2013-01-08 05:52:00,7.9,3.2,30.09,SW,224,4.0,9.0,81,0.00,,,0.00,meteohub,2013-01-08 10:52:00,
2013-01-08 05:57:00,7.9,3.2,30.09,SW,229,3.0,10.0,81,0.00,,,0.00,meteohub,2013-01-08 10:57:00,
2013-01-08 06:02:00,8.1,3.7,30.09,South,186,3.0,10.0,82,0.00,,,0.00,meteohub,2013-01-08 11:02:00,
2013-01-08 06:07:00,8.2,3.9,30.09,South,177,2.0,10.0,82,0.00,,,0.00,meteohub,2013-01-08 11:07:00,
2013-01-08 06:12:00,8.2,3.9,30.09,SSW,211,6.0,8.0,82,0.00,,,0.00,meteohub,2013-01-08 11:12:00,
2013-01-08 06:17:00,8.4,4.1,30.09,South,187,4.0,9.0,82,0.00,,,0.00,meteohub,2013-01-08 11:17:00,
2013-01-08 06:22:00,8.4,4.1,30.09,SW,219,5.0,9.0,82,0.00,,,0.00,meteohub,2013-01-08 11:22:00,
2013-01-08 06:27:00,8.6,4.3,30.09,SE,132,0.0,10.0,82,0.00,,,0.00,meteohub,2013-01-08 11:27:00,
2013-01-08 06:32:00,8.8,4.5,30.09,South,185,1.0,10.0,82,0.00,,,0.00,meteohub,2013-01-08 11:32:00,
2013-01-08 06:37:00,9.0,4.6,30.09,SSE,159,3.0,10.0,82,0.00,,,0.00,meteohub,2013-01-08 11:37:00,
2013-01-08 06:42:00,9.1,4.8,30.09,SSW,194,0.0,6.0,82,0.00,,,0.00,meteohub,2013-01-08 11:42:00,
2013-01-08 06:47:00,9.3,5.0,30.09,SSE,154,3.0,6.0,82,0.00,,,0.00,meteohub,2013-01-08 11:47:00,
2013-01-08 06:52:00,9.3,5.0,30.09,South,178,1.0,8.0,82,0.00,,,0.00,meteohub,2013-01-08 11:52:00,
2013-01-08 06:57:00,9.3,5.0,30.09,SSW,197,0.0,8.0,82,0.00,,,0.00,meteohub,2013-01-08 11:57:00,
2013-01-08 07:02:00,9.5,5.2,30.09,SW,222,6.0,8.0,82,0.00,,,0.00,meteohub,2013-01-08 12:02:00,
2013-01-08 07:07:00,9.9,5.5,30.09,South,190,1.0,7.0,82,0.00,,,0.00,meteohub,2013-01-08 12:07:00,
2013-01-08 07:12:00,10.2,6.1,30.09,South,191,6.0,7.0,83,0.00,,,0.00,meteohub,2013-01-08 12:12:00,
2013-01-08 07:17:00,11.1,6.6,30.09,SSW,209,4.0,10.0,82,0.00,,,0.00,meteohub,2013-01-08 12:17:00,
2013-01-08 07:22:00,11.5,6.8,30.09,South,174,1.0,10.0,81,0.00,,,0.00,meteohub,2013-01-08 12:22:00,
2013-01-08 07:27:00,11.5,6.8,30.09,South,184,2.0,10.0,81,0.00,,,0.00,meteohub,2013-01-08 12:27:00,
2013-01-08 07:32:00,11.3,6.8,30.09,SSW,210,3.0,8.0,82,0.00,,,0.00,meteohub,2013-01-08 12:32:00,
2013-01-08 07:37:00,11.5,7.0,30.09,SSW,204,2.0,6.0,82,0.00,,,0.00,meteohub,2013-01-08 12:37:00,
2013-01-08 07:42:00,11.7,7.2,30.09,SSW,213,5.0,6.0,82,0.00,,,0.00,meteohub,2013-01-08 12:42:00,
2013-01-08 07:47:00,12.0,7.5,30.09,SW,224,3.0,6.0,82,0.00,,,0.00,meteohub,2013-01-08 12:47:00,
2013-01-08 07:52:00,12.4,7.9,30.09,SSW,197,0.0,6.0,82,0.00,,,0.00,meteohub,2013-01-08 12:52:00,
2013-01-08 07:57:00,12.7,8.1,30.09,South,183,1.0,6.0,81,0.00,,,0.00,meteohub,2013-01-08 12:57:00,
2013-01-08 08:02:00,12.7,8.1,30.09,SW,226,3.0,6.0,81,0.00,,,0.00,meteohub,2013-01-08 13:02:00,
2013-01-08 08:07:00,12.7,8.1,30.09,SW,215,2.0,6.0,81,0.00,,,0.00,meteohub,2013-01-08 13:07:00,
2013-01-08 08:12:00,12.7,8.2,30.09,SSW,206,5.0,5.0,82,0.00,,,0.00,meteohub,2013-01-08 13:12:00,
2013-01-08 08:17:00,13.3,8.8,30.09,SW,223,5.0,7.0,82,0.00,,,0.00,meteohub,2013-01-08 13:17:00,
2013-01-08 08:22:00,13.5,9.0,30.09,SW,227,4.0,7.0,82,0.00,,,0.00,meteohub,2013-01-08 13:22:00,
2013-01-08 08:27:00,13.5,8.8,30.09,SSW,192,3.0,7.0,81,0.00,,,0.00,meteohub,2013-01-08 13:27:00,
2013-01-08 08:32:00,13.5,8.8,30.09,SW,224,2.0,7.0,81,0.00,,,0.00,meteohub,2013-01-08 13:32:00,
2013-01-08 08:37:00,13.6,9.0,30.09,SSW,192,4.0,7.0,81,0.00,,,0.00,meteohub,2013-01-08 13:37:00,
2013-01-08 08:42:00,13.6,9.0,30.09,SSW,213,3.0,7.0,81,0.00,,,0.00,meteohub,2013-01-08 13:42:00,
2013-01-08 08:47:00,13.8,9.1,30.09,SE,128,2.0,7.0,81,0.00,,,0.00,meteohub,2013-01-08 13:47:00,
2013-01-08 08:52:00,14.0,9.3,30.09,South,188,3.0,7.0,81,0.00,,,0.00,meteohub,2013-01-08 13:52:00,
2013-01-08 08:57:00,14.2,9.7,30.09,SSW,205,2.0,7.0,82,0.00,,,0.00,meteohub,2013-01-08 13:57:00,
2013-01-08 09:02:00,14.2,9.7,30.08,South,188,0.0,7.0,82,0.00,,,0.00,meteohub,2013-01-08 14:02:00,
2013-01-08 09:07:00,14.0,9.5,30.08,SSW,211,5.0,9.0,82,0.00,,,0.00,meteohub,2013-01-08 14:07:00,
2013-01-08 09:12:00,14.0,9.5,30.08,SW,232,5.0,9.0,82,0.00,,,0.00,meteohub,2013-01-08 14:12:00,
2013-01-08 09:17:00,13.8,9.7,30.08,SSW,196,2.0,8.0,83,0.00,,,0.00,meteohub,2013-01-08 14:17:00,
2013-01-08 09:22:00,14.0,9.5,30.09,SSW,200,4.0,7.0,82,0.00,,,0.00,meteohub,2013-01-08 14:22:00,
2013-01-08 09:27:00,14.2,9.7,30.08,SSW,207,5.0,8.0,82,0.00,,,0.00,meteohub,2013-01-08 14:27:00,
2013-01-08 09:32:00,14.4,9.9,30.08,WSW,241,6.0,8.0,82,0.00,,,0.00,meteohub,2013-01-08 14:32:00,
2013-01-08 09:37:00,14.7,10.2,30.08,SSW,196,1.0,10.0,82,0.00,,,0.00,meteohub,2013-01-08 14:37:00,
2013-01-08 09:42:00,14.9,10.4,30.08,SSE,153,5.0,10.0,82,0.00,,,0.00,meteohub,2013-01-08 14:42:00,
2013-01-08 09:47:00,15.1,10.6,30.08,SW,229,6.0,10.0,82,0.00,,,0.00,meteohub,2013-01-08 14:47:00,
2013-01-08 09:52:00,15.3,10.8,30.07,SW,215,5.0,11.0,82,0.00,,,0.00,meteohub,2013-01-08 14:52:00,
2013-01-08 09:57:00,15.4,10.6,30.07,South,174,2.0,11.0,81,0.00,,,0.00,meteohub,2013-01-08 14:57:00,
2013-01-08 10:02:00,15.8,10.9,30.07,South,180,1.0,11.0,81,0.00,,,0.00,meteohub,2013-01-08 15:02:00,
2013-01-08 10:07:00,16.2,11.7,30.07,SE,138,3.0,8.0,82,0.00,,,0.00,meteohub,2013-01-08 15:07:00,
2013-01-08 10:12:00,16.5,11.7,30.06,South,179,1.0,6.0,81,0.00,,,0.00,meteohub,2013-01-08 15:12:00,
2013-01-08 10:17:00,16.9,12.0,30.06,SSW,196,2.0,4.0,81,0.00,,,0.00,meteohub,2013-01-08 15:17:00,
2013-01-08 10:22:00,17.2,12.4,30.06,SSW,193,2.0,4.0,81,0.00,,,0.00,meteohub,2013-01-08 15:22:00,
2013-01-08 10:27:00,17.6,12.7,30.06,South,183,2.0,6.0,81,0.00,,,0.00,meteohub,2013-01-08 15:27:00,
2013-01-08 10:32:00,18.1,13.3,30.06,SSW,198,3.0,6.0,81,0.00,,,0.00,meteohub,2013-01-08 15:32:00,
2013-01-08 10:37:00,19.0,14.2,30.05,SSW,213,4.0,6.0,81,0.00,,,0.00,meteohub,2013-01-08 15:37:00,
2013-01-08 10:42:00,19.8,14.9,30.05,SW,226,4.0,5.0,81,0.00,,,0.00,meteohub,2013-01-08 15:42:00,
2013-01-08 10:47:00,20.8,16.0,30.04,SW,235,2.0,5.0,81,0.00,,,0.00,meteohub,2013-01-08 15:47:00,
2013-01-08 10:52:00,21.9,17.1,30.04,SW,226,3.0,5.0,81,0.00,,,0.00,meteohub,2013-01-08 15:52:00,
2013-01-08 10:57:00,22.6,17.4,30.05,SW,232,1.0,5.0,80,0.00,,,0.00,meteohub,2013-01-08 15:57:00,
2013-01-08 11:02:00,23.5,18.3,30.04,SW,227,0.0,5.0,80,0.00,,,0.00,meteohub,2013-01-08 16:02:00,
2013-01-08 11:07:00,24.3,18.7,30.04,NNW,333,0.0,4.0,79,0.00,,,0.00,meteohub,2013-01-08 16:07:00,
2013-01-08 11:12:00,25.0,19.4,30.04,NE,39,0.0,4.0,79,0.00,,,0.00,meteohub,2013-01-08 16:12:00,
2013-01-08 11:17:00,26.1,21.6,30.04,ENE,65,2.0,6.0,83,0.00,,,0.00,meteohub,2013-01-08 16:17:00,
2013-01-08 11:22:00,27.1,22.6,30.04,South,172,2.0,6.0,83,0.00,,,0.00,meteohub,2013-01-08 16:22:00,
2013-01-08 11:27:00,28.0,23.2,30.04,NNE,30,1.0,6.0,82,0.00,,,0.00,meteohub,2013-01-08 16:27:00,
2013-01-08 11:32:00,28.8,23.4,30.04,ESE,123,0.0,4.0,80,0.00,,,0.00,meteohub,2013-01-08 16:32:00,
2013-01-08 11:37:00,29.3,23.9,30.04,NE,38,0.0,5.0,80,0.00,,,0.00,meteohub,2013-01-08 16:37:00,
2013-01-08 11:43:00,29.7,24.3,30.04,NNE,25,1.0,9.0,80,0.00,,,0.00,meteohub,2013-01-08 16:43:00,
2013-01-08 11:48:00,30.0,24.6,30.04,North,5,0.0,9.0,80,0.00,,,0.00,meteohub,2013-01-08 16:48:00,
2013-01-08 11:53:00,30.4,24.6,30.04,NW,323,13.0,13.0,79,0.00,,,0.00,meteohub,2013-01-08 16:53:00,
2013-01-08 11:59:00,30.6,24.8,30.04,North,355,3.0,12.0,79,0.00,,,0.00,meteohub,2013-01-08 16:59:00,
2013-01-08 12:04:00,30.7,25.0,30.04,SW,219,3.0,15.0,79,0.00,,,0.00,meteohub,2013-01-08 17:04:00,
2013-01-08 12:09:00,31.1,25.3,30.04,NNW,332,2.0,16.0,79,0.00,,,0.00,meteohub,2013-01-08 17:09:00,
2013-01-08 12:14:00,31.5,25.7,30.03,WNW,296,1.0,16.0,79,0.00,,,0.00,meteohub,2013-01-08 17:14:00,
2013-01-08 12:19:00,31.5,25.7,30.03,NW,309,1.0,16.0,79,0.00,,,0.00,meteohub,2013-01-08 17:19:00,
2013-01-08 12:25:00,31.6,25.9,30.04,NW,304,4.0,19.0,79,0.00,,,0.00,meteohub,2013-01-08 17:25:00,
2013-01-08 12:30:00,32.0,26.2,30.04,West,259,7.0,19.0,79,0.00,,,0.00,meteohub,2013-01-08 17:30:00,
2013-01-08 12:35:00,32.2,26.1,30.04,WNW,287,6.0,17.0,78,0.01,,,0.01,meteohub,2013-01-08 17:35:00,
2013-01-08 12:40:00,32.4,26.6,30.04,NW,312,4.0,17.0,79,0.01,,,0.01,meteohub,2013-01-08 17:40:00,
2013-01-08 12:45:00,32.2,26.4,30.04,NW,321,1.0,22.0,79,0.01,,,0.01,meteohub,2013-01-08 17:45:00,
2013-01-08 12:50:00,32.4,26.6,30.04,NW,325,6.0,22.0,79,0.01,,,0.01,meteohub,2013-01-08 17:50:00,
2013-01-08 12:56:00,32.4,26.6,30.04,WSW,246,8.0,22.0,79,0.01,,,0.01,meteohub,2013-01-08 17:56:00,
2013-01-08 13:01:00,32.4,26.6,30.04,West,280,3.0,15.0,79,0.01,,,0.01,meteohub,2013-01-08 18:01:00,
2013-01-08 13:06:00,32.4,26.6,30.04,South,188,9.0,14.0,79,0.01,,,0.01,meteohub,2013-01-08 18:06:00,
2013-01-08 13:11:00,32.4,26.6,30.04,NNW,337,6.0,16.0,79,0.01,,,0.01,meteohub,2013-01-08 18:11:00,
2013-01-08 13:16:00,32.5,26.4,30.03,WSW,245,3.0,16.0,78,0.01,,,0.01,meteohub,2013-01-08 18:16:00,
2013-01-08 13:21:00,32.5,26.8,30.04,WSW,247,7.0,16.0,79,0.01,,,0.01,meteohub,2013-01-08 18:21:00,
2013-01-08 13:26:00,32.5,26.4,30.04,NW,314,0.0,19.0,78,0.01,,,0.01,meteohub,2013-01-08 18:26:00,
2013-01-08 13:32:00,32.7,26.6,30.03,SSW,209,9.0,19.0,78,0.01,,,0.01,meteohub,2013-01-08 18:32:00,
2013-01-08 13:37:00,32.9,26.8,30.04,NW,304,10.0,12.0,78,0.00,,,0.01,meteohub,2013-01-08 18:37:00,
2013-01-08 13:42:00,33.1,27.0,30.04,WSW,254,8.0,17.0,78,0.00,,,0.01,meteohub,2013-01-08 18:42:00,
2013-01-08 13:47:00,32.9,26.8,30.04,WSW,244,2.0,17.0,78,0.00,,,0.01,meteohub,2013-01-08 18:47:00,
2013-01-08 13:52:00,32.7,26.6,30.04,SW,225,10.0,17.0,78,0.00,,,0.01,meteohub,2013-01-08 18:52:00,
2013-01-08 13:57:00,32.7,26.6,30.04,NNW,343,3.0,17.0,78,0.00,,,0.01,meteohub,2013-01-08 18:57:00,
2013-01-08 14:02:00,32.7,27.0,30.05,ENE,63,2.0,17.0,79,0.00,,,0.01,meteohub,2013-01-08 19:02:00,
2013-01-08 14:07:00,32.7,27.0,30.05,NW,313,3.0,17.0,79,0.00,,,0.01,meteohub,2013-01-08 19:07:00,
2013-01-08 14:12:00,32.9,27.1,30.06,NNE,25,4.0,17.0,79,0.00,,,0.01,meteohub,2013-01-08 19:12:00,
2013-01-08 14:17:00,33.1,27.3,30.06,NW,325,4.0,17.0,79,0.00,,,0.01,meteohub,2013-01-08 19:17:00,
2013-01-08 14:22:00,33.1,27.3,30.06,NW,304,3.0,17.0,79,0.00,,,0.01,meteohub,2013-01-08 19:22:00,
2013-01-08 14:27:00,33.3,27.5,30.06,SW,236,2.0,15.0,79,0.00,,,0.01,meteohub,2013-01-08 19:27:00,
2013-01-08 14:32:00,33.6,27.5,30.07,North,0,6.0,15.0,78,0.00,,,0.01,meteohub,2013-01-08 19:32:00,
2013-01-08 14:37:00,33.6,27.5,30.07,NE,41,0.0,14.0,78,0.00,,,0.01,meteohub,2013-01-08 19:37:00,
2013-01-08 14:42:00,33.8,27.3,30.07,NNW,346,6.0,14.0,77,0.00,,,0.01,meteohub,2013-01-08 19:42:00,
2013-01-08 14:47:00,33.6,27.1,30.07,ENE,65,5.0,14.0,77,0.00,,,0.01,meteohub,2013-01-08 19:47:00,
2013-01-08 14:52:00,33.4,27.3,30.08,NNW,344,3.0,11.0,78,0.00,,,0.01,meteohub,2013-01-08 19:52:00,
2013-01-08 14:57:00,33.3,27.1,30.08,WNW,302,3.0,13.0,78,0.00,,,0.01,meteohub,2013-01-08 19:57:00,
2013-01-08 15:02:00,33.3,27.1,30.08,NNE,16,0.0,13.0,78,0.00,,,0.01,meteohub,2013-01-08 20:02:00,
2013-01-08 15:07:00,33.3,27.1,30.08,SSW,205,0.0,9.0,78,0.00,,,0.01,meteohub,2013-01-08 20:07:00,
2013-01-08 15:12:00,33.1,27.3,30.08,West,263,4.0,9.0,79,0.00,,,0.01,meteohub,2013-01-08 20:12:00,
2013-01-08 15:17:00,33.1,27.3,30.08,WSW,258,2.0,16.0,79,0.00,,,0.01,meteohub,2013-01-08 20:17:00,
2013-01-08 15:22:00,32.9,27.1,30.08,SW,214,2.0,16.0,79,0.00,,,0.01,meteohub,2013-01-08 20:22:00,
2013-01-08 15:27:00,32.7,27.0,30.09,WSW,252,8.0,16.0,79,0.00,,,0.01,meteohub,2013-01-08 20:27:00,
2013-01-08 15:32:00,32.7,27.0,30.09,NNW,343,1.0,13.0,79,0.00,,,0.01,meteohub,2013-01-08 20:32:00,
2013-01-08 15:37:00,32.5,26.8,30.09,West,273,6.0,13.0,79,0.00,,,0.01,meteohub,2013-01-08 20:37:00,
2013-01-08 15:42:00,32.5,27.1,30.10,SSW,202,3.0,13.0,80,0.00,,,0.01,meteohub,2013-01-08 20:42:00,
2013-01-08 15:47:00,32.5,27.1,30.10,WSW,253,2.0,10.0,80,0.00,,,0.01,meteohub,2013-01-08 20:47:00,
2013-01-08 15:52:00,32.5,27.1,30.10,SW,219,1.0,12.0,80,0.00,,,0.01,meteohub,2013-01-08 20:52:00,
2013-01-08 15:57:00,32.5,27.1,30.10,WSW,252,2.0,12.0,80,0.00,,,0.01,meteohub,2013-01-08 20:57:00,
2013-01-08 16:02:00,32.5,27.1,30.11,SW,229,4.0,12.0,80,0.00,,,0.01,meteohub,2013-01-08 21:02:00,
2013-01-08 16:07:00,32.5,27.1,30.11,SSW,213,2.0,12.0,80,0.00,,,0.01,meteohub,2013-01-08 21:07:00,
2013-01-08 16:12:00,32.5,27.1,30.11,SW,234,3.0,12.0,80,0.00,,,0.01,meteohub,2013-01-08 21:12:00,
2013-01-08 16:17:00,32.4,27.0,30.12,East,81,0.0,8.0,80,0.00,,,0.01,meteohub,2013-01-08 21:17:00,
2013-01-08 16:22:00,32.4,27.0,30.12,NNE,19,4.0,9.0,80,0.00,,,0.01,meteohub,2013-01-08 21:22:00,
2013-01-08 16:27:00,32.4,27.0,30.13,SW,234,0.0,9.0,80,0.00,,,0.01,meteohub,2013-01-08 21:27:00,
2013-01-08 16:32:00,32.4,27.0,30.13,NNW,343,0.0,9.0,80,0.00,,,0.01,meteohub,2013-01-08 21:32:00,
2013-01-08 16:37:00,32.4,27.0,30.13,WSW,238,3.0,8.0,80,0.00,,,0.01,meteohub,2013-01-08 21:37:00,
2013-01-08 16:42:00,32.4,27.0,30.13,WSW,244,4.0,8.0,80,0.00,,,0.01,meteohub,2013-01-08 21:42:00,
2013-01-08 16:47:00,32.4,27.0,30.12,SW,218,5.0,6.0,80,0.00,,,0.01,meteohub,2013-01-08 21:47:00,
2013-01-08 16:52:00,32.4,27.0,30.12,WSW,243,7.0,11.0,80,0.00,,,0.01,meteohub,2013-01-08 21:52:00,
2013-01-08 16:57:00,32.4,27.0,30.12,SSW,196,0.0,14.0,80,0.00,,,0.01,meteohub,2013-01-08 21:57:00,
2013-01-08 17:02:00,32.0,26.8,30.13,SW,223,7.0,14.0,81,0.00,,,0.01,meteohub,2013-01-08 22:02:00,
2013-01-08 17:07:00,31.8,26.6,30.13,WSW,258,6.0,10.0,81,0.00,,,0.01,meteohub,2013-01-08 22:07:00,
2013-01-08 17:12:00,31.8,26.6,30.13,NW,319,3.0,10.0,81,0.00,,,0.01,meteohub,2013-01-08 22:12:00,
2013-01-08 17:17:00,31.8,26.6,30.13,NNE,17,2.0,14.0,81,0.00,,,0.01,meteohub,2013-01-08 22:17:00,
2013-01-08 17:22:00,31.6,26.4,30.13,WNW,286,0.0,14.0,81,0.00,,,0.01,meteohub,2013-01-08 22:22:00,
2013-01-08 17:27:00,31.6,26.4,30.14,SSW,207,2.0,14.0,81,0.00,,,0.01,meteohub,2013-01-08 22:27:00,
2013-01-08 17:32:00,31.5,26.6,30.14,East,84,0.0,8.0,82,0.00,,,0.01,meteohub,2013-01-08 22:32:00,
2013-01-08 17:37:00,31.5,26.6,30.14,South,184,0.0,7.0,82,0.00,,,0.01,meteohub,2013-01-08 22:37:00,
2013-01-08 17:42:00,31.3,26.4,30.14,SSW,213,2.0,8.0,82,0.00,,,0.01,meteohub,2013-01-08 22:42:00,
2013-01-08 17:47:00,30.9,26.1,30.15,SW,223,1.0,8.0,82,0.00,,,0.01,meteohub,2013-01-08 22:47:00,
2013-01-08 17:52:00,30.9,26.4,30.15,SW,228,1.0,6.0,83,0.00,,,0.01,meteohub,2013-01-08 22:52:00,
2013-01-08 17:57:00,30.9,26.4,30.16,West,265,0.0,6.0,83,0.00,,,0.01,meteohub,2013-01-08 22:57:00,
2013-01-08 18:02:00,30.9,26.4,30.15,West,265,0.0,5.0,83,0.00,,,0.01,meteohub,2013-01-08 23:02:00,
2013-01-08 18:07:00,30.7,26.2,30.16,WNW,302,0.0,5.0,83,0.00,,,0.01,meteohub,2013-01-08 23:07:00,
2013-01-08 18:12:00,30.4,25.5,30.17,ENE,65,0.0,5.0,82,0.00,,,0.01,meteohub,2013-01-08 23:12:00,
2013-01-08 18:17:00,30.0,25.5,30.17,ENE,65,0.0,5.0,83,0.00,,,0.01,meteohub,2013-01-08 23:17:00,
2013-01-08 18:22:00,29.7,25.7,30.17,SW,233,0.0,2.0,85,0.00,,,0.01,meteohub,2013-01-08 23:22:00,
2013-01-08 18:28:00,29.5,25.5,30.18,West,268,0.0,4.0,85,0.00,,,0.01,meteohub,2013-01-08 23:28:00,
2013-01-08 18:33:00,29.7,26.1,30.18,West,267,2.0,4.0,86,0.00,,,0.01,meteohub,2013-01-08 23:33:00,
2013-01-08 18:38:00,30.0,26.1,30.17,WSW,246,0.0,5.0,85,0.00,,,0.01,meteohub,2013-01-08 23:38:00,
2013-01-08 18:43:00,30.2,26.2,30.17,WSW,241,2.0,5.0,85,0.00,,,0.01,meteohub,2013-01-08 23:43:00,
2013-01-08 18:48:00,30.6,26.2,30.18,WNW,297,0.0,5.0,84,0.00,,,0.01,meteohub,2013-01-08 23:48:00,
2013-01-08 18:53:00,30.6,26.2,30.18,West,273,3.0,10.0,84,0.00,,,0.01,meteohub,2013-01-08 23:53:00,
2013-01-08 18:58:00,30.6,26.2,30.18,ESE,107,1.0,10.0,84,0.00,,,0.01,meteohub,2013-01-08 23:58:00,
2013-01-08 19:04:00,30.6,26.2,30.18,WNW,303,0.0,9.0,84,0.00,,,0.01,meteohub,2013-01-09 00:04:00,
2013-01-08 19:09:00,30.7,26.4,30.19,West,273,0.0,6.0,84,0.00,,,0.00,meteohub,2013-01-09 00:09:00,
2013-01-08 19:14:00,30.6,26.2,30.19,West,263,1.0,6.0,84,0.00,,,0.00,meteohub,2013-01-09 00:14:00,
2013-01-08 19:19:00,30.6,26.2,30.19,SE,141,1.0,4.0,84,0.00,,,0.00,meteohub,2013-01-09 00:19:00,
2013-01-08 19:24:00,30.6,26.2,30.19,WNW,288,6.0,6.0,84,0.00,,,0.00,meteohub,2013-01-09 00:24:00,
2013-01-08 19:29:00,30.7,26.4,30.19,SSW,195,0.0,5.0,84,0.00,,,0.00,meteohub,2013-01-09 00:29:00,
2013-01-08 19:34:00,30.7,26.8,30.19,West,269,0.0,6.0,85,0.00,,,0.00,meteohub,2013-01-09 00:34:00,
2013-01-08 19:40:00,30.7,26.4,30.19,East,101,1.0,6.0,84,0.00,,,0.00,meteohub,2013-01-09 00:40:00,
2013-01-08 19:45:00,30.7,26.4,30.19,West,278,0.0,5.0,84,0.00,,,0.00,meteohub,2013-01-09 00:45:00,
2013-01-08 19:50:00,30.6,26.2,30.19,West,278,0.0,6.0,84,0.00,,,0.00,meteohub,2013-01-09 00:50:00,
2013-01-08 19:55:00,30.6,26.6,30.19,SW,232,0.0,6.0,85,0.00,,,0.00,meteohub,2013-01-09 00:55:00,
2013-01-08 20:00:00,30.6,26.6,30.20,WSW,244,0.0,5.0,85,0.00,,,0.00,meteohub,2013-01-09 01:00:00,
2013-01-08 20:05:00,30.6,26.2,30.20,NW,307,3.0,5.0,84,0.00,,,0.00,meteohub,2013-01-09 01:05:00,
2013-01-08 20:10:00,30.6,26.6,30.20,NNW,333,1.0,4.0,85,0.00,,,0.00,meteohub,2013-01-09 01:10:00,
2013-01-08 20:16:00,30.7,26.8,30.20,WSW,251,2.0,6.0,85,0.00,,,0.00,meteohub,2013-01-09 01:16:00,
2013-01-08 20:21:00,30.7,26.8,30.20,SW,221,2.0,7.0,85,0.00,,,0.00,meteohub,2013-01-09 01:21:00,
2013-01-08 20:26:00,30.7,26.8,30.20,West,280,4.0,7.0,85,0.00,,,0.00,meteohub,2013-01-09 01:26:00,
2013-01-08 20:31:00,30.7,26.8,30.20,North,5,0.0,5.0,85,0.00,,,0.00,meteohub,2013-01-09 01:31:00,
2013-01-08 20:36:00,30.7,26.8,30.20,WSW,246,2.0,5.0,85,0.00,,,0.00,meteohub,2013-01-09 01:36:00,
2013-01-08 20:41:00,30.7,26.8,30.20,SW,225,3.0,7.0,85,0.00,,,0.00,meteohub,2013-01-09 01:41:00,
2013-01-08 20:46:00,30.7,26.8,30.21,SW,215,4.0,7.0,85,0.00,,,0.00,meteohub,2013-01-09 01:46:00,
2013-01-08 20:52:00,30.7,26.8,30.21,WNW,288,6.0,6.0,85,0.00,,,0.00,meteohub,2013-01-09 01:52:00,
2013-01-08 20:57:00,30.6,26.6,30.21,West,277,0.0,8.0,85,0.00,,,0.00,meteohub,2013-01-09 01:57:00,
2013-01-08 21:02:00,30.4,26.4,30.21,West,273,1.0,8.0,85,0.00,,,0.00,meteohub,2013-01-09 02:02:00,
2013-01-08 21:07:00,30.4,26.4,30.21,NNW,343,0.0,8.0,85,0.00,,,0.00,meteohub,2013-01-09 02:07:00,
2013-01-08 21:12:00,30.0,26.1,30.22,East,84,0.0,2.0,85,0.00,,,0.00,meteohub,2013-01-09 02:12:00,
2013-01-08 21:17:00,30.0,26.4,30.22,West,277,0.0,2.0,86,0.00,,,0.00,meteohub,2013-01-09 02:17:00,
2013-01-08 21:22:00,30.0,26.4,30.22,SE,134,0.0,4.0,86,0.00,,,0.00,meteohub,2013-01-09 02:22:00,
2013-01-08 21:27:00,30.0,26.6,30.22,SE,145,0.0,5.0,87,0.00,,,0.00,meteohub,2013-01-09 02:27:00,
2013-01-08 21:32:00,29.8,26.2,30.22,SSE,158,0.0,5.0,86,0.00,,,0.00,meteohub,2013-01-09 02:32:00,
2013-01-08 21:37:00,29.8,26.4,30.22,West,275,0.0,5.0,87,0.00,,,0.00,meteohub,2013-01-09 02:37:00,
2013-01-08 21:42:00,29.8,26.2,30.22,SW,220,0.0,6.0,86,0.00,,,0.00,meteohub,2013-01-09 02:42:00,
2013-01-08 21:47:00,29.7,26.2,30.22,West,273,2.0,6.0,87,0.00,,,0.00,meteohub,2013-01-09 02:47:00,
2013-01-08 21:52:00,29.8,26.4,30.22,West,269,0.0,6.0,87,0.00,,,0.00,meteohub,2013-01-09 02:52:00,
2013-01-08 21:57:00,29.7,26.1,30.23,SSW,211,0.0,6.0,86,0.00,,,0.00,meteohub,2013-01-09 02:57:00,
2013-01-08 22:02:00,29.5,26.1,30.23,SW,223,0.0,4.0,87,0.00,,,0.00,meteohub,2013-01-09 03:02:00,
2013-01-08 22:07:00,29.3,25.7,30.23,SW,223,0.0,1.0,86,0.00,,,0.00,meteohub,2013-01-09 03:07:00,
2013-01-08 22:12:00,29.1,25.7,30.24,SW,223,0.0,1.0,87,0.00,,,0.00,meteohub,2013-01-09 03:12:00,
2013-01-08 22:17:00,28.9,25.9,30.25,SW,223,0.0,2.0,88,0.00,,,0.00,meteohub,2013-01-09 03:17:00,
2013-01-08 22:22:00,28.9,25.9,30.25,SW,219,0.0,2.0,88,0.00,,,0.00,meteohub,2013-01-09 03:22:00,
2013-01-08 22:27:00,28.8,25.7,30.25,SW,219,0.0,2.0,88,0.00,,,0.00,meteohub,2013-01-09 03:27:00,
2013-01-08 22:32:00,28.8,25.9,30.25,SSE,159,0.0,2.0,89,0.00,,,0.00,meteohub,2013-01-09 03:32:00,
2013-01-08 22:37:00,29.1,26.2,30.25,WNW,291,0.0,2.0,89,0.00,,,0.00,meteohub,2013-01-09 03:37:00,
2013-01-08 22:42:00,29.1,26.1,30.25,ENE,69,0.0,2.0,88,0.00,,,0.00,meteohub,2013-01-09 03:42:00,
2013-01-08 22:47:00,29.1,26.1,30.25,ENE,69,0.0,2.0,88,0.00,,,0.00,meteohub,2013-01-09 03:47:00,
2013-01-08 22:52:00,28.9,25.9,30.25,ENE,69,0.0,2.0,88,0.00,,,0.00,meteohub,2013-01-09 03:52:00,
2013-01-08 22:57:00,28.8,25.7,30.25,ENE,69,1.0,2.0,88,0.00,,,0.00,meteohub,2013-01-09 03:57:00,
2013-01-08 23:02:00,28.6,25.7,30.25,ENE,68,0.0,1.0,89,0.00,,,0.00,meteohub,2013-01-09 04:02:00,
2013-01-08 23:07:00,28.4,25.5,30.25,ENE,68,0.0,1.0,89,0.00,,,0.00,meteohub,2013-01-09 04:07:00,
2013-01-08 23:12:00,28.4,25.5,30.25,ENE,68,0.0,1.0,89,0.00,,,0.00,meteohub,2013-01-09 04:12:00,
2013-01-08 23:17:00,28.0,25.5,30.25,ENE,68,0.0,1.0,90,0.00,,,0.00,meteohub,2013-01-09 04:17:00,
2013-01-08 23:22:00,27.9,25.0,30.26,ENE,68,0.0,1.0,89,0.00,,,0.00,meteohub,2013-01-09 04:22:00,
2013-01-08 23:27:00,27.5,25.0,30.26,ENE,68,0.0,1.0,90,0.00,,,0.00,meteohub,2013-01-09 04:27:00,
2013-01-08 23:32:00,27.5,25.2,30.26,ENE,68,0.0,0.0,91,0.00,,,0.00,meteohub,2013-01-09 04:32:00,
2013-01-08 23:37:00,27.3,25.0,30.26,ENE,68,0.0,0.0,91,0.00,,,0.00,meteohub,2013-01-09 04:37:00,
2013-01-08 23:42:00,27.0,24.6,30.27,ENE,68,0.0,0.0,91,0.00,,,0.00,meteohub,2013-01-09 04:42:00,
2013-01-08 23:47:00,26.8,24.4,30.27,ENE,68,0.0,0.0,91,0.00,,,0.00,meteohub,2013-01-09 04:47:00,
2013-01-08 23:52:00,26.4,24.1,30.27,ENE,71,0.0,1.0,91,0.00,,,0.00,meteohub,2013-01-09 04:52:00,
2013-01-08 23:57:00,26.8,24.8,30.27,ENE,71,0.0,1.0,92,0.00,,,0.00,meteohub,2013-01-09 04:57:00,